| time (UTC) | temp C | wind direction | speed KPH | gust KPH | rain 1hr cm | rain 24hr cm | rain mn cm | humidity % | barometer mb |
| 20260507105204 | 11 | 80 | 9.7 | 22.5 | 0.00 | 0.00 | 0.00 | 65 | 1013.1 |
| 20260507104705 | 11 | 144 | 9.7 | 20.9 | 0.00 | 0.00 | 0.00 | 65 | 1013.0 |
| 20260507103705 | 10 | 137 | 11.3 | 19.3 | 0.00 | 0.00 | 0.00 | 67 | 1013.1 |
| 20260507103205 | 10 | 85 | 8.0 | 17.7 | 0.00 | 0.00 | 0.00 | 70 | 1013.1 |
| 20260507102705 | 10 | 80 | 8.0 | 17.7 | 0.00 | 0.00 | 0.00 | 74 | 1013.1 |
| 20260507102205 | 9 | 96 | 9.7 | 17.7 | 0.00 | 0.00 | 0.00 | 73 | 1013.1 |
| 20260507100705 | 8 | 131 | 8.0 | 25.7 | 0.00 | 0.00 | 0.00 | 74 | 1013.1 |
| 20260507095704 | 8 | 96 | 9.7 | 30.6 | 0.00 | 0.00 | 0.00 | 73 | 1013.1 |
| 20260507095205 | 8 | 145 | 12.9 | 30.6 | 0.00 | 0.00 | 0.00 | 74 | 1013.1 |
| 20260507094704 | 8 | 130 | 16.1 | 30.6 | 0.00 | 0.00 | 0.00 | 74 | 1013.1 |
| 20260507094205 | 8 | 171 | 11.3 | 29.0 | 0.00 | 0.00 | 0.00 | 74 | 1013.1 |
| 20260507093705 | 8 | 151 | 12.9 | 24.1 | 0.00 | 0.00 | 0.00 | 73 | 1013.0 |
| 20260507093204 | 8 | 164 | 9.7 | 24.1 | 0.00 | 0.00 | 0.00 | 72 | 1012.8 |
| 20260507092705 | 8 | 111 | 12.9 | 22.5 | 0.00 | 0.00 | 0.00 | 71 | 1013.0 |
| 20260507092205 | 8 | 80 | 8.0 | 22.5 | 0.00 | 0.00 | 0.00 | 70 | 1013.0 |
| 20260507091705 | 9 | 138 | 9.7 | 22.5 | 0.00 | 0.00 | 0.00 | 70 | 1012.8 |
| 20260507090732 | 8 | 154 | 8.0 | 20.9 | 0.00 | 0.00 | 0.00 | 71 | 1012.7 |
| 20260507085704 | 8 | 116 | 8.0 | 27.4 | 0.00 | 0.00 | 0.00 | 72 | 1012.7 |
| 20260507085204 | 8 | 157 | 11.3 | 27.4 | 0.00 | 0.00 | 0.00 | 71 | 1012.5 |
| 20260507084704 | 8 | 148 | 11.3 | 27.4 | 0.00 | 0.00 | 0.00 | 71 | 1012.5 |
| 20260507084204 | 8 | 185 | 8.0 | 29.0 | 0.00 | 0.00 | 0.00 | 71 | 1012.5 |
| 20260507083704 | 8 | 166 | 11.3 | 29.0 | 0.00 | 0.00 | 0.00 | 70 | 1012.3 |
| 20260507083205 | 8 | 172 | 12.9 | 29.0 | 0.00 | 0.00 | 0.00 | 71 | 1012.3 |
| 20260507082705 | 8 | 118 | 9.7 | 25.7 | 0.00 | 0.00 | 0.00 | 70 | 1012.4 |
| 20260507082205 | 8 | 140 | 11.3 | 24.1 | 0.00 | 0.00 | 0.00 | 69 | 1012.5 |
| 20260507081205 | 9 | 99 | 9.7 | 22.5 | 0.00 | 0.00 | 0.00 | 67 | 1012.5 |
| 20260507080705 | 10 | 125 | 9.7 | 22.5 | 0.00 | 0.00 | 0.00 | 65 | 1012.5 |
| 20260507080204 | 10 | 117 | 4.8 | 22.5 | 0.00 | 0.00 | 0.00 | 65 | 1012.4 |
| 20260507075205 | 10 | 82 | 9.7 | 20.9 | 0.00 | 0.00 | 0.00 | 67 | 1012.3 |
| 20260507074704 | 10 | 120 | 8.0 | 20.9 | 0.00 | 0.00 | 0.00 | 66 | 1012.5 |
| 20260507074205 | 10 | 100 | 9.7 | 25.7 | 0.00 | 0.00 | 0.00 | 66 | 1012.5 |
| 20260507073705 | 9 | 138 | 4.8 | 25.7 | 0.00 | 0.00 | 0.00 | 65 | 1012.4 |
| 20260507073204 | 10 | 159 | 9.7 | 25.7 | 0.00 | 0.00 | 0.00 | 63 | 1012.3 |
| 20260507072705 | 10 | 140 | 9.7 | 19.3 | 0.00 | 0.00 | 0.00 | 65 | 1012.2 |
| 20260507072204 | 10 | 162 | 3.2 | 16.1 | 0.00 | 0.00 | 0.00 | 68 | 1012.2 |
| 20260507071705 | 9 | 83 | 8.0 | 16.1 | 0.00 | 0.00 | 0.00 | 71 | 1012.2 |
| 20260507071204 | 8 | 124 | 3.2 | 16.1 | 0.00 | 0.00 | 0.00 | 69 | 1012.1 |
| 20260507070704 | 8 | 99 | 8.0 | 11.3 | 0.00 | 0.00 | 0.00 | 72 | 1012.2 |
| 20260507070204 | 8 | 92 | 6.4 | 11.3 | 0.00 | 0.00 | 0.00 | 73 | 1012.2 |
| 20260507065705 | 8 | 137 | 4.8 | 11.3 | 0.00 | 0.00 | 0.00 | 74 | 1012.2 |
| 20260507065205 | 7 | 111 | 6.4 | 14.5 | 0.00 | 0.00 | 0.00 | 76 | 1012.2 |
| 20260507064704 | 7 | 145 | 3.2 | 14.5 | 0.00 | 0.00 | 0.00 | 75 | 1012.3 |
| 20260507064205 | 7 | 121 | 4.8 | 14.5 | 0.00 | 0.00 | 0.00 | 75 | 1012.3 |
| 20260507063705 | 6 | 104 | 6.4 | 9.7 | 0.00 | 0.00 | 0.00 | 76 | 1012.2 |
| 20260507063205 | 6 | 154 | 4.8 | 9.7 | 0.00 | 0.00 | 0.00 | 77 | 1012.1 |
| 20260507062705 | 6 | 118 | 3.2 | 11.3 | 0.00 | 0.00 | 0.00 | 78 | 1012.1 |
| 20260507062204 | 6 | 130 | 4.8 | 11.3 | 0.00 | 0.00 | 0.00 | 78 | 1012.1 |
| 20260507061705 | 6 | 131 | 3.2 | 11.3 | 0.00 | 0.00 | 0.00 | 79 | 1012.1 |
| 20260507061205 | 6 | 99 | 3.2 | 9.7 | 0.00 | 0.00 | 0.00 | 80 | 1012.1 |
| 20260507060705 | 6 | 134 | 4.8 | 9.7 | 0.00 | 0.00 | 0.00 | 80 | 1012.1 |
| 20260507055704 | 5 | 117 | 3.2 | 14.5 | 0.00 | 0.00 | 0.00 | 81 | 1011.9 |
| 20260507054704 | 5 | 172 | 3.2 | 8.0 | 0.00 | 0.00 | 0.00 | 82 | 1011.8 |
| 20260507053704 | 5 | 130 | 0.0 | 8.0 | 0.00 | 0.00 | 0.00 | 83 | 1011.8 |
| 20260507053205 | 5 | 127 | 3.2 | 9.7 | 0.00 | 0.00 | 0.00 | 83 | 1011.7 |
| 20260507051704 | 4 | 257 | 1.6 | 6.4 | 0.00 | 0.00 | 0.00 | 85 | 1011.7 |
| 20260507050705 | 3 | 159 | 1.6 | 6.4 | 0.00 | 0.00 | 0.00 | 86 | 1011.7 |
| 20260507050204 | 3 | 118 | 3.2 | 6.4 | 0.00 | 0.00 | 0.00 | 86 | 1011.7 |
| 20260507045705 | 3 | 227 | 1.6 | 6.4 | 0.00 | 0.00 | 0.00 | 86 | 1011.7 |
| 20260507045204 | 3 | 214 | 3.2 | 6.4 | 0.00 | 0.00 | 0.00 | 86 | 1011.7 |
| 20260507044704 | 3 | 210 | 1.6 | 6.4 | 0.00 | 0.00 | 0.00 | 86 | 1011.7 |
| 20260507044204 | 3 | 216 | 1.6 | 4.8 | 0.00 | 0.00 | 0.00 | 86 | 1011.7 |
| 20260507043705 | 3 | 278 | 0.0 | 4.8 | 0.00 | 0.00 | 0.00 | 86 | 1011.7 |
| 20260507043204 | 3 | 275 | 1.6 | 3.2 | 0.00 | 0.00 | 0.00 | 86 | 1011.8 |
| 20260507042704 | 3 | 272 | 0.0 | 6.4 | 0.00 | 0.00 | 0.00 | 86 | 1011.8 |
| 20260507041704 | 4 | 0 | 0.0 | 6.4 | 0.00 | 0.00 | 0.00 | 87 | 1012.1 |
| 20260507041204 | 3 | 317 | 0.0 | 6.4 | 0.00 | 0.00 | 0.00 | 87 | 1012.1 |
| 20260507040728 | 3 | 354 | 3.2 | 8.0 | 0.00 | 0.00 | 0.00 | 87 | 1011.9 |
| 20260507040204 | 4 | 269 | 0.0 | 8.0 | 0.00 | 0.00 | 0.00 | 88 | 1011.9 |
| 20260507035704 | 3 | 233 | 0.0 | 8.0 | 0.00 | 0.00 | 0.00 | 88 | 1011.9 |
| 20260507035204 | 3 | 147 | 3.2 | 8.0 | 0.00 | 0.00 | 0.00 | 89 | 1011.9 |
| 20260507034705 | 3 | 110 | 1.6 | 9.7 | 0.00 | 0.00 | 0.00 | 89 | 1011.9 |
| 20260507033705 | 3 | 164 | 0.0 | 9.7 | 0.00 | 0.00 | 0.00 | 90 | 1012.2 |
| 20260507033205 | 3 | 169 | 4.8 | 9.7 | 0.00 | 0.00 | 0.00 | 90 | 1012.2 |
| 20260507032705 | 3 | 199 | 3.2 | 11.3 | 0.00 | 0.00 | 0.00 | 91 | 1012.2 |
| 20260507032204 | 3 | 138 | 4.8 | 11.3 | 0.00 | 0.00 | 0.00 | 91 | 1012.2 |
| 20260507031704 | 3 | 166 | 6.4 | 11.3 | 0.00 | 0.00 | 0.00 | 92 | 1012.2 |
| 20260507031205 | 3 | 175 | 4.8 | 11.3 | 0.00 | 0.00 | 0.00 | 92 | 1012.3 |
| 20260507030704 | 3 | 169 | 4.8 | 11.3 | 0.00 | 0.00 | 0.00 | 92 | 1012.3 |
| 20260507030204 | 3 | 124 | 1.6 | 11.3 | 0.00 | 0.00 | 0.00 | 92 | 1012.3 |
| 20260507025704 | 3 | 140 | 6.4 | 8.0 | 0.00 | 0.00 | 0.00 | 92 | 1012.4 |
| 20260507024705 | 3 | 123 | 0.0 | 8.0 | 0.00 | 0.00 | 0.00 | 92 | 1012.3 |
| 20260507023705 | 3 | 124 | 1.6 | 8.0 | 0.00 | 0.00 | 0.00 | 92 | 1012.3 |
| 20260507023204 | 3 | 142 | 4.8 | 6.4 | 0.00 | 0.00 | 0.00 | 92 | 1012.3 |
| 20260507022204 | 3 | 92 | 3.2 | 4.8 | 0.00 | 0.00 | 0.00 | 92 | 1012.4 |
| 20260507021705 | 2 | 128 | 1.6 | 4.8 | 0.00 | 0.00 | 0.00 | 92 | 1012.4 |
| 20260507021205 | 2 | 124 | 3.2 | 4.8 | 0.00 | 0.00 | 0.00 | 92 | 1012.4 |
| 20260507020723 | 2 | 128 | 1.6 | 4.8 | 0.00 | 0.00 | 0.00 | 92 | 1012.4 |
| 20260507020205 | 2 | 130 | 1.6 | 4.8 | 0.00 | 0.00 | 0.00 | 92 | 1012.4 |
| 20260507015704 | 2 | 133 | 1.6 | 3.2 | 0.00 | 0.00 | 0.00 | 92 | 1012.4 |
| 20260507015204 | 2 | 107 | 1.6 | 3.2 | 0.00 | 0.00 | 0.00 | 92 | 1012.4 |
| 20260507014704 | 2 | 145 | 0.0 | 3.2 | 0.00 | 0.00 | 0.00 | 92 | 1012.5 |
| 20260507014204 | 2 | 158 | 0.0 | 4.8 | 0.00 | 0.00 | 0.00 | 91 | 1012.4 |
| 20260507013205 | 2 | 164 | 1.6 | 4.8 | 0.00 | 0.00 | 0.00 | 92 | 1012.4 |
| 20260507012705 | 2 | 183 | 0.0 | 4.8 | 0.00 | 0.00 | 0.00 | 91 | 1012.5 |
| 20260507012205 | 2 | 109 | 0.0 | 4.8 | 0.00 | 0.00 | 0.00 | 91 | 1012.5 |
| 20260507011705 | 2 | 109 | 1.6 | 3.2 | 0.00 | 0.00 | 0.00 | 91 | 1012.6 |
| 20260507005704 | 2 | 94 | 0.0 | 0.0 | 0.00 | 0.00 | 0.00 | 90 | 1012.6 |
| 20260507005204 | 3 | 94 | 0.0 | 0.0 | 0.00 | 0.00 | 0.00 | 91 | 1012.7 |
| 20260507004705 | 3 | 94 | 0.0 | 0.0 | 0.00 | 0.00 | 0.00 | 91 | 1012.7 |
| 20260507003705 | 3 | 94 | 0.0 | 3.2 | 0.00 | 0.00 | 0.00 | 90 | 1012.6 |
| 20260507003204 | 3 | 94 | 0.0 | 3.2 | 0.00 | 0.00 | 0.00 | 90 | 1012.7 |
| 20260507002704 | 3 | 94 | 0.0 | 3.2 | 0.00 | 0.00 | 0.00 | 90 | 1012.7 |
| 20260507002205 | 3 | 94 | 0.0 | 3.2 | 0.00 | 0.00 | 0.00 | 90 | 1012.7 |
| 20260507001705 | 3 | 94 | 0.0 | 3.2 | 0.00 | 0.00 | 0.00 | 90 | 1012.7 |
| 20260507001204 | 3 | 94 | 1.6 | 0.0 | 0.00 | 0.00 | 0.00 | 90 | 1012.7 |
| 20260507000704 | 3 | 94 | 0.0 | 0.0 | 0.00 | 0.00 | 0.00 | 89 | 1012.8 |
| 20260507000205 | 3 | 94 | 0.0 | 0.0 | 0.00 | 0.00 | 0.00 | 89 | 1012.8 |
| 20260506235705 | 3 | 94 | 0.0 | 0.0 | 0.00 | 0.00 | 0.00 | 89 | 1012.8 |
| 20260506234205 | 3 | 96 | 0.0 | 0.0 | 0.00 | 0.00 | 0.00 | 88 | 1013.1 |
| 20260506233704 | 3 | 96 | 0.0 | 0.0 | 0.00 | 0.00 | 0.00 | 88 | 1013.0 |
| 20260506233230 | 3 | 96 | 0.0 | 0.0 | 0.00 | 0.00 | 0.00 | 87 | 1013.0 |
| 20260506232705 | 3 | 96 | 0.0 | 0.0 | 0.00 | 0.00 | 0.00 | 87 | 1013.0 |
| 20260506230205 | 4 | 96 | 0.0 | 0.0 | 0.00 | 0.00 | 0.00 | 85 | 1013.0 |
| 20260506225705 | 4 | 96 | 0.0 | 3.2 | 0.00 | 0.00 | 0.00 | 85 | 1013.0 |
| 20260506225204 | 4 | 96 | 0.0 | 3.2 | 0.00 | 0.00 | 0.00 | 85 | 1013.0 |
| 20260506224704 | 5 | 96 | 0.0 | 4.8 | 0.00 | 0.00 | 0.00 | 84 | 1012.8 |
| 20260506224205 | 5 | 96 | 1.6 | 6.4 | 0.00 | 0.00 | 0.00 | 83 | 1012.8 |
| 20260506223705 | 5 | 96 | 0.0 | 6.4 | 0.00 | 0.00 | 0.00 | 83 | 1012.8 |
| 20260506223204 | 5 | 82 | 1.6 | 6.4 | 0.00 | 0.00 | 0.00 | 83 | 1012.7 |
| 20260506222705 | 5 | 83 | 3.2 | 6.4 | 0.00 | 0.00 | 0.00 | 84 | 1012.8 |
| 20260506222204 | 5 | 157 | 3.2 | 8.0 | 0.00 | 0.00 | 0.00 | 84 | 1012.8 |
| 20260506221705 | 5 | 155 | 4.8 | 8.0 | 0.00 | 0.00 | 0.00 | 84 | 1012.7 |
| 20260506221204 | 5 | 117 | 1.6 | 6.4 | 0.00 | 0.00 | 0.00 | 84 | 1012.7 |
| 20260506215705 | 6 | 104 | 1.6 | 4.8 | 0.00 | 0.00 | 0.00 | 83 | 1012.8 |
| 20260506215205 | 6 | 106 | 1.6 | 4.8 | 0.00 | 0.00 | 0.00 | 83 | 1012.8 |
| 20260506214205 | 6 | 106 | 1.6 | 6.4 | 0.00 | 0.00 | 0.00 | 84 | 1012.8 |
| 20260506212704 | 6 | 142 | 0.0 | 4.8 | 0.00 | 0.00 | 0.00 | 83 | 1012.7 |
| 20260506212205 | 6 | 142 | 0.0 | 6.4 | 0.00 | 0.00 | 0.00 | 83 | 1012.7 |
| 20260506211705 | 6 | 142 | 1.6 | 6.4 | 0.00 | 0.00 | 0.00 | 82 | 1012.8 |
| 20260506211204 | 6 | 130 | 1.6 | 6.4 | 0.00 | 0.00 | 0.00 | 82 | 1012.7 |
| 20260506210204 | 6 | 240 | 0.0 | 4.8 | 0.00 | 0.00 | 0.00 | 81 | 1012.6 |
| 20260506205705 | 7 | 241 | 1.6 | 6.4 | 0.00 | 0.00 | 0.00 | 80 | 1012.5 |
| 20260506205205 | 7 | 303 | 1.6 | 6.4 | 0.00 | 0.00 | 0.00 | 80 | 1012.4 |
| 20260506204205 | 7 | 0 | 3.2 | 3.2 | 0.00 | 0.00 | 0.00 | 80 | 1012.4 |
| 20260506202705 | 7 | 69 | 0.0 | 6.4 | 0.00 | 0.00 | 0.00 | 82 | 1012.3 |
| 20260506202204 | 7 | 69 | 0.0 | 6.4 | 0.00 | 0.00 | 0.00 | 82 | 1012.2 |
| 20260506201705 | 7 | 111 | 0.0 | 4.8 | 0.00 | 0.00 | 0.00 | 83 | 1012.2 |
| 20260506201205 | 7 | 111 | 0.0 | 4.8 | 0.00 | 0.00 | 0.00 | 83 | 1012.2 |
| 20260506200705 | 7 | 111 | 3.2 | 4.8 | 0.00 | 0.00 | 0.00 | 83 | 1012.3 |
| 20260506200205 | 7 | 85 | 1.6 | 3.2 | 0.00 | 0.00 | 0.00 | 82 | 1012.3 |
| 20260506195705 | 7 | 85 | 1.6 | 3.2 | 0.00 | 0.00 | 0.00 | 81 | 1012.2 |
| 20260506195204 | 7 | 85 | 0.0 | 3.2 | 0.00 | 0.00 | 0.00 | 80 | 1011.9 |
| 20260506194705 | 7 | 85 | 0.0 | 3.2 | 0.00 | 0.00 | 0.00 | 80 | 1011.9 |
| 20260506194205 | 7 | 85 | 0.0 | 3.2 | 0.00 | 0.00 | 0.00 | 79 | 1011.9 |
| 20260506193705 | 7 | 85 | 3.2 | 3.2 | 0.00 | 0.00 | 0.00 | 79 | 1011.8 |
| 20260506192704 | 7 | 85 | 0.0 | 1.6 | 0.00 | 0.00 | 0.00 | 76 | 1011.7 |
| 20260506192205 | 7 | 85 | 0.0 | 3.2 | 0.00 | 0.00 | 0.00 | 75 | 1011.7 |
| 20260506191722 | 8 | 85 | 0.0 | 3.2 | 0.00 | 0.00 | 0.00 | 74 | 1011.7 |
| 20260506191205 | 8 | 85 | 0.0 | 3.2 | 0.00 | 0.00 | 0.00 | 73 | 1011.6 |
| 20260506190704 | 8 | 85 | 3.2 | 3.2 | 0.00 | 0.00 | 0.00 | 72 | 1011.7 |
| 20260506190204 | 8 | 85 | 1.6 | 0.0 | 0.00 | 0.00 | 0.00 | 71 | 1011.5 |
| 20260506185705 | 9 | 85 | 0.0 | 0.0 | 0.00 | 0.00 | 0.00 | 71 | 1011.6 |
| 20260506185204 | 9 | 85 | 0.0 | 3.2 | 0.00 | 0.00 | 0.00 | 70 | 1011.5 |
| 20260506183704 | 10 | 85 | 1.6 | 9.7 | 0.00 | 0.00 | 0.00 | 66 | 1011.4 |
| 20260506183204 | 10 | 85 | 3.2 | 9.7 | 0.00 | 0.00 | 0.00 | 65 | 1011.4 |
| 20260506182704 | 10 | 66 | 6.4 | 14.5 | 0.00 | 0.00 | 0.00 | 65 | 1011.4 |
| 20260506182226 | 10 | 41 | 6.4 | 14.5 | 0.00 | 0.00 | 0.00 | 65 | 1011.4 |
| 20260506181705 | 11 | 65 | 6.4 | 14.5 | 0.00 | 0.00 | 0.00 | 65 | 1011.4 |
| 20260506181205 | 11 | 49 | 9.7 | 11.3 | 0.00 | 0.00 | 0.00 | 64 | 1011.4 |
| 20260506180705 | 11 | 72 | 8.0 | 9.7 | 0.00 | 0.00 | 0.00 | 64 | 1011.4 |
| 20260506180205 | 11 | 83 | 1.6 | 9.7 | 0.00 | 0.00 | 0.00 | 64 | 1011.4 |
| 20260506175205 | 11 | 72 | 1.6 | 9.7 | 0.00 | 0.00 | 0.00 | 62 | 1011.3 |
| 20260506174705 | 11 | 72 | 6.4 | 6.4 | 0.00 | 0.00 | 0.00 | 61 | 1011.3 |
| 20260506174205 | 11 | 89 | 3.2 | 8.0 | 0.00 | 0.00 | 0.00 | 61 | 1011.3 |
| 20260506173205 | 11 | 14 | 3.2 | 11.3 | 0.00 | 0.00 | 0.00 | 57 | 1011.4 |
| 20260506172705 | 11 | 34 | 6.4 | 9.7 | 0.00 | 0.00 | 0.00 | 56 | 1011.4 |
| 20260506172204 | 11 | 47 | 6.4 | 11.3 | 0.00 | 0.00 | 0.00 | 57 | 1011.4 |
| 20260506171204 | 11 | 27 | 6.4 | 11.3 | 0.00 | 0.00 | 0.00 | 56 | 1011.4 |
| 20260506170204 | 11 | 87 | 3.2 | 11.3 | 0.00 | 0.00 | 0.00 | 59 | 1011.4 |
| 20260506165205 | 11 | 72 | 4.8 | 11.3 | 0.00 | 0.00 | 0.00 | 59 | 1011.3 |
| 20260506164704 | 11 | 69 | 4.8 | 11.3 | 0.00 | 0.00 | 0.00 | 60 | 1011.1 |
| 20260506164204 | 11 | 75 | 6.4 | 11.3 | 0.00 | 0.00 | 0.00 | 56 | 1011.3 |
| 20260506163705 | 12 | 55 | 8.0 | 11.3 | 0.00 | 0.00 | 0.00 | 53 | 1011.3 |
| 20260506162705 | 12 | 65 | 9.7 | 14.5 | 0.00 | 0.00 | 0.00 | 52 | 1011.1 |
| 20260506162228 | 12 | 76 | 8.0 | 14.5 | 0.00 | 0.00 | 0.00 | 51 | 1011.1 |
| 20260506161212 | 12 | 90 | 4.8 | 9.7 | 0.00 | 0.00 | 0.00 | 51 | 1011.1 |
| 20260506160705 | 12 | 61 | 4.8 | 9.7 | 0.00 | 0.00 | 0.00 | 49 | 1011.1 |
| 20260506155704 | 13 | 104 | 1.6 | 14.5 | 0.00 | 0.00 | 0.00 | 48 | 1011.1 |
| 20260506155204 | 14 | 47 | 3.2 | 17.7 | 0.00 | 0.00 | 0.00 | 44 | 1011.1 |
| 20260506154705 | 14 | 73 | 6.4 | 17.7 | 0.00 | 0.00 | 0.00 | 44 | 1011.1 |
| 20260506154205 | 15 | 0 | 9.7 | 17.7 | 0.00 | 0.00 | 0.00 | 42 | 1011.1 |
| 20260506153704 | 15 | 314 | 3.2 | 17.7 | 0.00 | 0.00 | 0.00 | 43 | 1011.0 |
| 20260506152705 | 15 | 292 | 9.7 | 17.7 | 0.00 | 0.00 | 0.00 | 45 | 1011.1 |
| 20260506150705 | 15 | 303 | 14.5 | 19.3 | 0.00 | 0.00 | 0.00 | 43 | 1011.1 |
| 20260506145705 | 15 | 178 | 12.9 | 17.7 | 0.00 | 0.00 | 0.00 | 42 | 1011.3 |
| 20260506145204 | 15 | 186 | 3.2 | 17.7 | 0.00 | 0.00 | 0.00 | 41 | 1011.3 |
| 20260506144705 | 15 | 283 | 6.4 | 17.7 | 0.00 | 0.00 | 0.00 | 43 | 1011.3 |
| 20260506144205 | 15 | 183 | 9.7 | 17.7 | 0.00 | 0.00 | 0.00 | 44 | 1011.4 |
| 20260506143705 | 14 | 216 | 3.2 | 19.3 | 0.00 | 0.00 | 0.00 | 44 | 1011.4 |
| 20260506143204 | 14 | 245 | 8.0 | 19.3 | 0.00 | 0.00 | 0.00 | 46 | 1011.4 |
| 20260506142704 | 14 | 224 | 9.7 | 16.1 | 0.00 | 0.00 | 0.00 | 43 | 1011.4 |
| 20260506142205 | 15 | 321 | 6.4 | 16.1 | 0.00 | 0.00 | 0.00 | 46 | 1011.4 |
| 20260506141204 | 14 | 310 | 6.4 | 16.1 | 0.00 | 0.00 | 0.00 | 42 | 1011.6 |
| 20260506140705 | 13 | 330 | 11.3 | 16.1 | 0.00 | 0.00 | 0.00 | 46 | 1011.6 |
| 20260506140205 | 13 | 355 | 8.0 | 16.1 | 0.00 | 0.00 | 0.00 | 47 | 1011.8 |
| 20260506134704 | 13 | 354 | 8.0 | 19.3 | 0.00 | 0.00 | 0.00 | 47 | 1011.8 |
| 20260506134205 | 13 | 326 | 12.9 | 17.7 | 0.00 | 0.00 | 0.00 | 47 | 1011.8 |
| 20260506133705 | 13 | 345 | 12.9 | 22.5 | 0.00 | 0.00 | 0.00 | 48 | 1011.9 |
| 20260506132704 | 13 | 292 | 9.7 | 16.1 | 0.00 | 0.00 | 0.00 | 48 | 1011.9 |
| 20260506132204 | 13 | 317 | 11.3 | 16.1 | 0.00 | 0.00 | 0.00 | 50 | 1012.1 |
| 20260506131705 | 13 | 302 | 4.8 | 17.7 | 0.00 | 0.00 | 0.00 | 47 | 1012.1 |
| 20260506131205 | 13 | 268 | 9.7 | 17.7 | 0.00 | 0.00 | 0.00 | 50 | 1012.1 |
| 20260506130704 | 13 | 303 | 4.8 | 17.7 | 0.00 | 0.00 | 0.00 | 50 | 1012.1 |
| 20260506130204 | 12 | 269 | 4.8 | 14.5 | 0.00 | 0.00 | 0.00 | 53 | 1012.1 |
| 20260506125204 | 11 | 28 | 3.2 | 11.3 | 0.00 | 0.00 | 0.00 | 52 | 1012.3 |
| 20260506124704 | 11 | 306 | 4.8 | 14.5 | 0.00 | 0.00 | 0.00 | 51 | 1012.3 |
| 20260506124205 | 11 | 306 | 6.4 | 16.1 | 0.00 | 0.00 | 0.00 | 51 | 1012.3 |
| 20260506123705 | 11 | 336 | 6.4 | 17.7 | 0.00 | 0.00 | 0.00 | 52 | 1012.4 |
| 20260506123204 | 12 | 323 | 6.4 | 17.7 | 0.00 | 0.00 | 0.00 | 51 | 1012.4 |
| 20260506122705 | 12 | 333 | 9.7 | 11.3 | 0.00 | 0.00 | 0.00 | 52 | 1012.3 |
| 20260506122204 | 12 | 357 | 8.0 | 11.3 | 0.00 | 0.00 | 0.00 | 53 | 1012.3 |
| 20260506121204 | 11 | 298 | 8.0 | 14.5 | 0.00 | 0.00 | 0.00 | 53 | 1012.4 |
| 20260506120704 | 11 | 292 | 4.8 | 14.5 | 0.00 | 0.00 | 0.00 | 53 | 1012.5 |
| 20260506120205 | 11 | 278 | 6.4 | 14.5 | 0.00 | 0.00 | 0.00 | 54 | 1012.6 |
| 20260506115704 | 11 | 334 | 3.2 | 9.7 | 0.00 | 0.00 | 0.00 | 51 | 1012.6 |
| 20260506115204 | 11 | 252 | 4.8 | 14.5 | 0.00 | 0.00 | 0.00 | 53 | 1012.6 |
| 20260506114705 | 11 | 350 | 3.2 | 14.5 | 0.00 | 0.00 | 0.00 | 52 | 1012.6 |
| 20260506114204 | 11 | 323 | 6.4 | 9.7 | 0.00 | 0.00 | 0.00 | 51 | 1012.7 |
| 20260506113704 | 11 | 319 | 4.8 | 11.3 | 0.00 | 0.00 | 0.00 | 51 | 1012.6 |
| 20260506113204 | 11 | 279 | 3.2 | 11.3 | 0.00 | 0.00 | 0.00 | 53 | 1012.6 |
| 20260506112705 | 11 | 307 | 3.2 | 11.3 | 0.00 | 0.00 | 0.00 | 51 | 1012.8 |
| 20260506112227 | 11 | 327 | 3.2 | 9.7 | 0.00 | 0.00 | 0.00 | 53 | 1012.7 |
| 20260506111705 | 11 | 295 | 3.2 | 9.7 | 0.00 | 0.00 | 0.00 | 53 | 1012.7 |
| 20260506111204 | 11 | 303 | 4.8 | 14.5 | 0.00 | 0.00 | 0.00 | 50 | 1012.8 |
| 20260506110705 | 11 | 326 | 4.8 | 14.5 | 0.00 | 0.00 | 0.00 | 53 | 1012.8 |
| 20260506110204 | 11 | 279 | 3.2 | 14.5 | 0.00 | 0.00 | 0.00 | 51 | 1012.8 |
| 20260506105705 | 11 | 316 | 6.4 | 17.7 | 0.00 | 0.00 | 0.00 | 51 | 1012.8 |